Location: Sevilla
(37.3933°N, 5.9839°W)
Time: 12:48:53
(UTC+02:00)

Explorer 7 - All Passes

Search period start: 21 June 2024 00:00
Search period end: 01 July 2024 00:00
Orbit: 466 x 622 km, 50.3° (Epoch: 20 June)

Date Brightness Start Highest point End Pass type
(mag) Time Alt. Az. Time Alt. Az. Time Alt. Az.
21 Jun - 12:19:04 10° SSW 12:22:49 34° SE 12:26:23 10° ENE daylight
21 Jun - 13:58:44 10° W 14:02:27 35° NNW 14:06:01 10° NE daylight
21 Jun - 15:41:05 10° NW 15:42:57 13° N 15:44:49 10° NNE daylight
21 Jun - 17:22:07 10° NNW 17:23:55 13° N 17:25:42 10° NE daylight
21 Jun - 19:00:59 10° NW 19:04:24 36° NNE 19:07:47 10° E daylight
21 Jun - 20:40:49 10° WNW 20:43:55 26° SW 20:47:02 10° SSE daylight
22 Jun - 12:11:18 10° SSW 12:15:17 46° SE 12:19:05 10° ENE daylight
22 Jun - 13:51:32 10° W 13:55:04 29° NNW 13:58:27 10° NE daylight
22 Jun - 15:34:02 10° NNW 15:35:40 12° N 15:37:19 10° NNE daylight
22 Jun - 17:14:31 10° NNW 17:16:37 14° NNE 17:18:43 10° NE daylight
22 Jun - 18:53:25 10° NW 18:56:59 48° NNE 19:00:30 10° ESE daylight
22 Jun - 20:33:42 10° W 20:36:21 19° SW 20:39:00 10° S daylight
23 Jun - 12:03:38 10° SW 12:07:45 64° SE 12:11:41 10° ENE daylight
23 Jun - 13:44:21 10° W 13:47:39 24° NNW 13:50:51 10° NNE daylight
23 Jun - 15:26:54 10° NNW 15:28:24 12° N 15:29:52 10° NNE daylight
23 Jun - 17:06:53 10° NNW 17:09:19 16° NNE 17:11:41 10° ENE daylight
23 Jun - 18:45:52 10° NW 18:49:31 65° NE 18:53:08 10° ESE daylight
23 Jun - 20:26:51 10° W 20:28:45 14° SW 20:30:38 10° SSW daylight
24 Jun - 10:19:30 10° SSE 10:21:00 12° SE 10:22:29 10° ESE daylight
24 Jun - 11:56:02 10° SW 12:00:13 87° SSE 12:04:13 10° NE daylight
24 Jun - 13:37:11 10° WNW 13:40:16 21° NNW 13:43:15 10° NNE daylight
24 Jun - 15:19:39 10° NNW 15:21:06 12° N 15:22:31 10° NNE daylight
24 Jun - 16:59:15 10° NNW 17:01:57 19° NNE 17:04:37 10° ENE daylight
24 Jun - 18:38:20 10° NW 18:42:01 90° NE 18:45:39 10° SE daylight
25 Jun - 10:10:41 10° S 10:13:21 16° SE 10:15:57 10° E daylight
25 Jun - 11:48:30 10° WSW 11:52:41 71° NW 11:56:41 10° NE daylight
25 Jun - 13:30:04 10° WNW 13:32:53 18° NNW 13:35:38 10° NNE daylight
25 Jun - 15:12:17 10° NNW 15:13:46 12° N 15:15:15 10° NNE daylight
25 Jun - 16:51:34 10° NNW 16:54:34 22° NNE 16:57:29 10° ENE daylight
25 Jun - 18:30:50 10° WNW 18:34:29 65° SW 18:38:04 10° SE daylight
26 Jun - 10:02:21 10° S 10:05:42 22° SE 10:08:55 10° E daylight
26 Jun - 11:41:03 10° WSW 11:45:10 54° NW 11:49:06 10° NE daylight
26 Jun - 13:22:55 10° NW 13:25:30 16° NNW 13:27:59 10° NNE daylight
26 Jun - 15:04:46 10° NNW 15:06:26 12° N 15:08:04 10° NNE daylight
26 Jun - 16:43:54 10° NNW 16:47:08 26° NNE 16:50:16 10° E daylight
26 Jun - 18:23:21 10° WNW 18:26:53 45° SW 18:30:21 10° SSE daylight
27 Jun - 09:54:16 10° SSW 09:58:03 30° SE 10:01:40 10° ENE daylight
27 Jun - 11:33:37 10° WSW 11:37:38 42° NNW 11:41:28 10° NE daylight
27 Jun - 13:15:46 10° NW 13:18:06 15° NNW 13:20:22 10° NNE daylight
27 Jun - 14:57:10 10° NNW 14:59:04 13° N 15:00:55 10° NE daylight
27 Jun - 16:36:13 10° NW 16:39:39 32° NNE 16:42:59 10° E daylight
27 Jun - 18:15:56 10° WNW 18:19:15 32° SW 18:22:30 10° SSE daylight
28 Jun - 09:46:19 10° SSW 09:50:23 40° SE 09:54:17 10° ENE daylight
28 Jun - 11:26:15 10° W 11:30:06 34° NNW 11:33:48 10° NE daylight
28 Jun - 13:08:35 10° NW 13:10:41 14° N 13:12:45 10° NNE daylight
28 Jun - 14:49:30 10° NNW 14:51:40 14° NNE 14:53:47 10° NE daylight
28 Jun - 16:28:31 10° NW 16:32:08 41° NNE 16:35:37 10° ESE daylight
28 Jun - 18:08:36 10° WNW 18:11:34 23° SW 18:14:30 10° S daylight
29 Jun - 09:38:27 10° SW 09:42:43 55° SE 09:46:47 10° ENE daylight
29 Jun - 11:18:54 10° W 11:22:34 28° NNW 11:26:07 10° NE daylight
29 Jun - 13:01:20 10° NW 13:03:16 13° N 13:05:11 10° NNE daylight
29 Jun - 14:41:47 10° NNW 14:44:14 16° NNE 14:46:38 10° NE daylight
29 Jun - 16:20:51 10° NW 16:24:34 55° NE 16:28:10 10° ESE daylight
29 Jun - 18:01:25 10° W 18:03:51 17° SW 18:06:15 10° S daylight
30 Jun - 07:55:21 10° SE 07:55:53 10° SE 07:56:25 10° ESE daylight
30 Jun - 09:30:42 10° SW 09:35:03 74° SE 09:39:13 10° NE daylight
30 Jun - 11:11:35 10° W 11:15:03 24° NNW 11:18:23 10° NNE daylight
30 Jun - 12:54:00 10° NNW 12:55:51 13° N 12:57:40 10° NNE daylight
30 Jun - 14:34:02 10° NNW 14:36:46 18° NNE 14:39:26 10° ENE daylight
30 Jun - 16:13:10 10° NW 16:16:58 75° NE 16:20:37 10° ESE daylight
30 Jun - 17:54:38 10° WSW 17:56:05 12° SW 17:57:31 10° SSW daylight
